Voltar ao catálogo

USA 416

AtivoMilitarVLEO
NORAD 61037·PAYLOAD·🇺🇸 United States

Lançado Sep 6, 2024 de Vandenberg Space Force Base

Loading…

Próximas Passagens (próximas 24 horas)

TLE

ObsoletoSource: Mike McCants

Época: Sep 9, 2026, 19:17 UTC

1 61037U 24160S   26252.80364777 0.00000000  00000-0  00000-0 0    02
2 61037  70.0230 144.6700 0001000  91.8948 268.1052 14.96712958    09

Acompanhe USA 416 em tempo real com AllMySat

Download on the App Store